[TLELIST] Archives

 

[list_settings.list_name] Current TLEs

February 5th 2009 PDT

HST 1 20580U 90037B 09034.89054736 .00000284 00000-0 91070-5 0 3194 2 20580 028.4692 251.9195 0003512 324.0454 035.9897 15.00451866829818 ISS (ZARYA) 1 25544U 98067A 09034.50032303 .00006969 00000-0 59688-4 0 2018 2 25544 051.6426 271.4263 0008105 344.8670 079.4567 15.70735355584924 CXO 1 25867U 99040B 09034.29166667 +.00000030 +00000-0 +10000-3 0 02900 2 25867 064.8455 073.6776 7269642 276.8028 000.3714 00.37804462004505 ____________________________________________________________________ These 2-Line ...Continue Reading

[list_settings.list_name] Current TLEs

February 4th 2009 PDT

HST 1 20580U 90037B 09032.96158718 +.00000296 +00000-0 +10010-4 0 03350 2 20580 028.4701 264.5056 0003534 300.1524 059.8714 15.00451534829525 ISS (ZARYA) 1 25544U 98067A 09034.18667905 .00007007 00000-0 60004-4 0 1987 2 25544 051.6426 273.0297 0008099 343.7226 105.8651 15.70730756584878 CXO 1 25867U 99040B 09034.29166667 +.00000030 +00000-0 +10000-3 0 02900 2 25867 064.8455 073.6776 7269642 276.8028 000.3714 00.37804462004505 ____________________________________________________________________ These 2-Line ...Continue Reading

[list_settings.list_name] Current TLEs

February 3rd 2009 PDT

HST 1 20580U 90037B 09033.02810302 .00000306 00000-0 10803-4 0 3185 2 20580 028.4702 264.0716 0003522 301.1510 058.8734 15.00451634829530 ISS (ZARYA) 1 25544U 98067A 09032.85087131 .00007579 00000-0 64546-4 0 1884 2 25544 051.6435 279.8552 0008128 338.9502 112.1118 15.70712504584669 CXO 1 25867U 99040B 09028.95833333 +.00000116 +00000-0 +10000-3 0 02890 2 25867 064.8100 073.9006 7263619 276.7796 354.4243 00.37806706004480 ____________________________________________________________________ These 2-Line ...Continue Reading

[list_settings.list_name] Current TLEs

February 2nd 2009 PDT

HST 1 20580U 90037B 09031.89733342 .00000294 00000-0 98906-5 0 3172 2 20580 028.4702 271.4481 0003582 288.9193 071.1007 15.00451249829360 ISS (ZARYA) 1 25544U 98067A 09031.49920139 .00008939 00000-0 75307-4 0 1807 2 25544 051.6439 286.7618 0007954 332.8715 030.0155 15.70695793584454 CXO 1 25867U 99040B 09028.95833333 +.00000116 +00000-0 +10000-3 0 02890 2 25867 064.8100 073.9006 7263619 276.7796 354.4243 00.37806706004480 ____________________________________________________________________ These 2-Line ...Continue Reading

[list_settings.list_name] Current TLEs

February 1st 2009 PDT

HST 1 20580U 90037B 09030.10140486 .00000291 00000-0 96610-5 0 3162 2 20580 028.4707 283.1606 0003630 268.8322 091.1853 15.00450822829096 ISS (ZARYA) 1 25544U 98067A 09030.55535990 .00010472 00000-0 87429-4 0 1735 2 25544 051.6435 291.5837 0007905 329.0243 093.3693 15.70684338584303 CXO 1 25867U 99040B 09028.95833333 +.00000116 +00000-0 +10000-3 0 02890 2 25867 064.8100 073.9006 7263619 276.7796 354.4243 00.37806706004480 ____________________________________________________________________ These 2-Line ...Continue Reading

[list_settings.list_name] Current TLEs

January 31st 2009 PDT

HST 1 20580U 90037B 09030.10140486 .00000291 00000-0 96610-5 0 3162 2 20580 028.4707 283.1606 0003630 268.8322 091.1853 15.00450822829096 ISS (ZARYA) 1 25544U 98067A 09030.18305779 .00010652 00000-0 88877-4 0 1710 2 25544 051.6432 293.4857 0007828 327.4935 148.3235 15.70676743584244 CXO 1 25867U 99040B 09028.95833333 +.00000116 +00000-0 +10000-3 0 02890 2 25867 064.8100 073.9006 7263619 276.7796 354.4243 00.37806706004480 ____________________________________________________________________ These 2-Line ...Continue Reading

[list_settings.list_name] Current TLEs

January 30th 2009 PDT

HST 1 20580U 90037B 09029.03715120 .00000277 00000-0 85635-5 0 3153 2 20580 028.4706 290.1017 0003692 257.4572 102.5606 15.00450436828934 ISS (ZARYA) 1 25544U 98067A 09028.83908628 .00010552 00000-0 88193-4 0 1610 2 25544 051.6435 300.3533 0007786 321.9488 109.4340 15.70646742584039 CXO 1 25867U 99040B 09028.95833333 +.00000116 +00000-0 +10000-3 0 02890 2 25867 064.8100 073.9006 7263619 276.7796 354.4243 00.37806706004480 ____________________________________________________________________ These 2-Line ...Continue Reading

[list_settings.list_name] Current TLEs

January 29th 2009 PDT

HST 1 20580U 90037B 09027.90638181 .00000278 00000-0 86376-5 0 3141 2 20580 028.4709 297.4773 0003688 244.9869 115.0336 15.00450241828765 ISS (ZARYA) 1 25544U 98067A 09028.21888861 .00010183 00000-0 85336-4 0 1579 2 25544 051.6432 303.5220 0007839 319.9110 202.3235 15.70631310583931 CXO 1 25867U 99040B 09026.33333333 +.00000015 +00000-0 +10000-3 0 02882 2 25867 064.7971 073.9726 7259473 276.7786 357.1177 00.37805928004476 ____________________________________________________________________ These 2-Line ...Continue Reading

[list_settings.list_name] Current TLEs

January 28th 2009 PDT

HST 1 20580U 90037B 09025.97742193 +.00000327 +00000-0 +12416-4 0 03277 2 20580 028.4706 310.0580 0003702 225.6267 134.4007 15.00450164828477 ISS (ZARYA) 1 25544U 98067A 09027.19841559 .00009198 00000-0 77646-4 0 1500 2 25544 051.6433 308.7347 0007770 315.2448 193.1079 15.70605173583779 CXO 1 25867U 99040B 09026.33333333 +.00000015 +00000-0 +10000-3 0 02882 2 25867 064.7971 073.9726 7259473 276.7786 357.1177 00.37805928004476 ____________________________________________________________________ These 2-Line ...Continue Reading

[list_settings.list_name] Current TLEs

January 27th 2009 PDT

HST 1 20580U 90037B 09026.17696975 .00000313 00000-0 11353-4 0 3135 2 20580 028.4706 308.7564 0003708 228.0485 131.9789 15.00450102828503 ISS (ZARYA) 1 25544U 98067A 09025.90753036 .00009376 00000-0 79134-4 0 1400 2 25544 051.6429 315.3294 0007688 309.6325 094.9788 15.70580475583578 CXO 1 25867U 99040B 09023.66666667 -.00000091 +00000-0 +10000-3 0 02878 2 25867 064.7867 074.0510 7254817 276.7793 354.1130 00.37806129004467 ____________________________________________________________________ These 2-Line ...Continue Reading
  • This mailing list is a public mailing list - anyone may join or leave, at any time.
  • This mailing list is announce-only.

International Space Station (ISS) / Hubble Space Telescope (HST) / Chandra X-Ray Observatory Orbital Data via EMAIL

Privacy Policy:

Private list